Regional Weather Roundup
Issued by NWS

Home | Current Version | Previous Version | Graphics & Text | Print | Product List | Glossary On
Versions: 1 2 3 4 5 6 7 8 9 10 11 12 13 14 15 16 17 18 19 20 21 22 23 24 25 26 27 28 29 30 31 32 33 34 35 36 37 38 39 40 41 42 43 44 45 46 47 48 49 50
000
ASUS44 KMEG 220800
RWRTN
TENNESSEE HOURLY STATE WEATHER ROUNDUP
NATIONAL WEATHER SERVICE MEMPHIS TN
300 AM CDT TUE JUL 22 2014

TNZ002-004-019-021-049-052-054-088>092-220900-
WEST TENNESSEE

CITY           SKY/WX    TMP DP  RH WIND       PRES   REMARKS
MEMPHIS INTL   CLEAR     73  66  78 VRB3      30.07S
NWS MEMPHIS      N/A     68 N/A N/A MISG        N/A
JACKSON        CLEAR     66  64  93 CALM      30.06S FOG
DYERSBURG      CLEAR     66  59  77 CALM      30.08S
UNION CITY     CLEAR     66  66 100 CALM      30.06S
PARIS          CLEAR     66  63  88 CALM      30.07S
LEXINGTON      CLEAR     66  66 100 CALM      30.05S
SAVANNAH       CLEAR     68  68 100 CALM      30.06S
$$

TNZ008-025-027-028-033-062-065-066-220900-
NORTH MIDDLE TENNESSEE

CITY           SKY/WX    TMP DP  RH WIND       PRES   REMARKS
NASHVILLE      PTCLDY    74  71  91 CALM      30.07S
CLARKSVILLE    CLEAR     69  65  86 NW3       30.06S
COOKEVILLE       N/A     68  68 100 CALM      30.09S VSB 3/4
CROSSVILLE     CLEAR     67  65  93 CALM      30.14S
$$

TNZ061-075-076-078-094-096-097-220900-
SOUTH MIDDLE TENNESSEE

CITY           SKY/WX    TMP DP  RH WIND       PRES   REMARKS
FAYETTEVILLE   CLOUDY    72  70  94 E8        30.08S
TULLAHOMA      PTCLDY    70  66  88 CALM      30.10S
WINCHESTER     PTCLDY    70  70 100 SE3       30.08F
MCMINNVILLE    CLEAR     70  70 100 CALM      30.09S
COLUMBIA       CLEAR     72  72 100 CALM      30.05S
SHELBYVILLE    PTCLDY    72  72 100 CALM      30.08F
$$

TNZ017-018-042-046-047-220900-
NORTHEAST TENNESSEE

CITY           SKY/WX    TMP DP  RH WIND       PRES   REMARKS
TRI CITIES     MOCLDY    69  64  84 CALM      30.14S
ELIZABETHTON   MOSUNNY   66  63  88 E3        30.15S
$$

TNZ012-013-036-069-073-074-220900-
CENTRAL EAST TENNESSEE

CITY           SKY/WX    TMP DP  RH WIND       PRES   REMARKS
KNOXVILLE      MOCLDY    72  71  97 CALM      30.09S
OAK RIDGE      PTCLDY    73  71  93 CALM      30.11R
GATLINBURG     SUNNY     70  68  94 CALM      30.10R
$$

TNZ083-085-099-220900-
SOUTHEAST TENNESSEE

CITY           SKY/WX    TMP DP  RH WIND       PRES   REMARKS
CHATTANOOGA    MOCLDY    74  70  87 CALM      30.09S
$$

SKY/WX REPORTED AS FAIR MEANS FEW OR NO CLOUDS BELOW
12 THOUSAND FEET.



USA.gov is the U.S. government's official web portal to all federal, state and local government web resources and services.